When you browse on this site, cookies collect data to enhance your experience and personalize the content and advertising you see.
Visit our Privacy Policy to learn more. By continuing to use the site, you agree to this use of cookies and data.
  • In Switzerland
  • List of Countries
  • For 7 days
  • Water Temperature
  • Satellite Maps
  • Weather Map
  • Weather Widgets
  • user-avatar
    Login

    Hourly Weather Fier

    Today, 20 January, Sunday

    Time Temperature Precipitation Wind Pressure Humidity
    00:00 +9°C° 0 mm 3 mps 759 mmHg 78%
    01:00 +8°C° 0 mm 3 mps 759 mmHg 77%
    02:00 +8°C° 0.3 mm 3 mps 758 mmHg 77%
    03:00 +8°C° 0.3 mm 3 mps 758 mmHg 78%
    04:00 +8°C° 0.3 mm 3 mps 758 mmHg 78%
    05:00 +8°C° 0.2 mm 3 mps 758 mmHg 78%
    06:00 +8°C° 0.2 mm 3 mps 759 mmHg 78%
    07:00 +8°C° 0.2 mm 3 mps 759 mmHg 78%
    08:00 +10°C° 0.1 mm 3 mps 759 mmHg 75%
    09:00 +11°C° 0.1 mm 3 mps 759 mmHg 71%
    10:00 +12°C° 0.1 mm 3 mps 759 mmHg 67%
    11:00 +13°C° 0.2 mm 3 mps 759 mmHg 65%
    12:00 +14°C° 0.2 mm 3 mps 759 mmHg 63%
    13:00 +14°C° 0.2 mm 3 mps 759 mmHg 61%
    14:00 +14°C° 0.2 mm 3 mps 759 mmHg 65%
    15:00 +14°C° 0.2 mm 2 mps 759 mmHg 69%
    16:00 +14°C° 0.2 mm 2 mps 759 mmHg 73%
    17:00 +13°C° 0.1 mm 2 mps 759 mmHg 76%
    18:00 +12°C° 0.1 mm 2 mps 759 mmHg 79%
    19:00 +11°C° 0.1 mm 1 mps 759 mmHg 82%
    20:00 +10°C° 0 mm 1 mps 759 mmHg 82%
    21:00 +9°C° 0 mm 2 mps 759 mmHg 82%
    22:00 +9°C° 0 mm 2 mps 760 mmHg 82%
    23:00 +8°C° 0 mm 2 mps 760 mmHg 81%

    Tomorrow, 21 January, Monday

    Time Temperature Precipitation Wind Pressure Humidity
    00:00 +8°C° 0 mm 2 mps 760 mmHg 80%
    01:00 +8°C° 0 mm 2 mps 760 mmHg 79%
    02:00 +8°C° 0 mm 2 mps 760 mmHg 77%
    03:00 +7°C° 0 mm 2 mps 759 mmHg 76%
    04:00 +7°C° 0 mm 2 mps 759 mmHg 75%
    05:00 +7°C° 0 mm 2 mps 759 mmHg 74%
    06:00 +7°C° 0 mm 2 mps 760 mmHg 73%
    07:00 +7°C° 0 mm 2 mps 760 mmHg 72%
    08:00 +8°C° 0 mm 2 mps 760 mmHg 67%
    09:00 +10°C° 0 mm 2 mps 760 mmHg 61%
    10:00 +13°C° 0 mm 2 mps 760 mmHg 56%
    11:00 +14°C° 0 mm 2 mps 760 mmHg 53%
    12:00 +15°C° 0 mm 2 mps 760 mmHg 50%
    13:00 +16°C° 0 mm 1 mps 759 mmHg 48%
    14:00 +15°C° 0.1 mm 2 mps 759 mmHg 53%
    15:00 +15°C° 0.1 mm 2 mps 759 mmHg 58%
    16:00 +14°C° 0.1 mm 2 mps 759 mmHg 63%
    17:00 +13°C° 0.2 mm 2 mps 760 mmHg 66%
    18:00 +11°C° 0.2 mm 3 mps 760 mmHg 69%
    19:00 +10°C° 0.2 mm 3 mps 760 mmHg 72%
    20:00 +10°C° 0.1 mm 3 mps 760 mmHg 73%
    21:00 +10°C° 0.1 mm 3 mps 760 mmHg 73%
    22:00 +10°C° 0.1 mm 3 mps 760 mmHg 73%
    23:00 +10°C° 0.2 mm 3 mps 760 mmHg 73%

    Day after tomorrow, 22 January, Tuesday

    Time Temperature Precipitation Wind Pressure Humidity
    00:00 +9°C° 0.2 mm 3 mps 760 mmHg 74%
    01:00 +9°C° 0.2 mm 3 mps 759 mmHg 74%
    02:00 +9°C° 0.3 mm 3 mps 759 mmHg 74%
    03:00 +9°C° 0.3 mm 3 mps 759 mmHg 74%
    04:00 +8°C° 0.3 mm 4 mps 758 mmHg 73%
    05:00 +8°C° 0.1 mm 4 mps 758 mmHg 72%
    06:00 +8°C° 0.1 mm 4 mps 758 mmHg 71%
    07:00 +8°C° 0.1 mm 5 mps 757 mmHg 70%
    08:00 +9°C° 0 mm 5 mps 757 mmHg 68%
    09:00 +10°C° 0 mm 5 mps 757 mmHg 65%
    10:00 +10°C° 0 mm 5 mps 757 mmHg 63%
    11:00 +12°C° 0.1 mm 5 mps 756 mmHg 61%
    12:00 +13°C° 0.1 mm 5 mps 755 mmHg 59%
    13:00 +14°C° 0.1 mm 6 mps 755 mmHg 58%
    14:00 +13°C° 0.3 mm 5 mps 754 mmHg 62%
    15:00 +12°C° 0.3 mm 5 mps 753 mmHg 66%
    16:00 +12°C° 0.3 mm 5 mps 752 mmHg 70%
    17:00 +10°C° 0.5 mm 5 mps 752 mmHg 72%
    18:00 +10°C° 0.5 mm 5 mps 752 mmHg 73%
    19:00 +9°C° 0.5 mm 5 mps 751 mmHg 75%
    20:00 +9°C° 0.4 mm 5 mps 751 mmHg 75%
    21:00 +9°C° 0.4 mm 6 mps 751 mmHg 76%
    22:00 +9°C° 0.4 mm 6 mps 750 mmHg 76%
    23:00 +9°C° 1 mm 5 mps 750 mmHg 78%

    23 January, Wednesday

    Time Temperature Precipitation Wind Pressure Humidity
    00:00 +9°C° 1 mm 5 mps 749 mmHg 80%
    01:00 +8°C° 1 mm 5 mps 748 mmHg 81%
    02:00 +9°C° 1 mm 5 mps 748 mmHg 81%
    03:00 +9°C° 1 mm 6 mps 748 mmHg 81%
    04:00 +9°C° 1 mm 7 mps 748 mmHg 81%
    05:00 +9°C° 1.2 mm 6 mps 748 mmHg 81%
    06:00 +9°C° 1.2 mm 6 mps 748 mmHg 82%
    07:00 +9°C° 1.2 mm 5 mps 749 mmHg 83%
    08:00 +9°C° 1.1 mm 6 mps 749 mmHg 78%
    09:00 +10°C° 1.1 mm 6 mps 750 mmHg 72%
    10:00 +11°C° 1.1 mm 7 mps 750 mmHg 66%
    11:00 +11°C° 0.5 mm 7 mps 750 mmHg 63%
    12:00 +11°C° 0.5 mm 7 mps 750 mmHg 60%
    13:00 +12°C° 0.5 mm 8 mps 749 mmHg 58%
    14:00 +11°C° 0.1 mm 7 mps 749 mmHg 60%
    15:00 +11°C° 0.1 mm 6 mps 749 mmHg 63%
    16:00 +10°C° 0.1 mm 5 mps 749 mmHg 65%
    17:00 +9°C° 0 mm 5 mps 749 mmHg 68%
    18:00 +8°C° 0 mm 5 mps 749 mmHg 71%
    19:00 +7°C° 0 mm 5 mps 750 mmHg 74%
    20:00 +7°C° 0 mm 4 mps 750 mmHg 74%
    21:00 +7°C° 0 mm 4 mps 749 mmHg 73%
    22:00 +6°C° 0 mm 4 mps 749 mmHg 73%
    23:00 +6°C° 0 mm 4 mps 749 mmHg 71%

    24 January, Thursday

    Time Temperature Precipitation Wind Pressure Humidity
    00:00 +7°C° 0 mm 3 mps 748 mmHg 70%
    01:00 +7°C° 0 mm 3 mps 747 mmHg 68%
    02:00 +7°C° 0 mm 3 mps 746 mmHg 69%
    03:00 +6°C° 0 mm 4 mps 745 mmHg 69%
    04:00 +6°C° 0 mm 4 mps 744 mmHg 69%
    05:00 +6°C° 0.6 mm 4 mps 744 mmHg 72%
    06:00 +8°C° 0.6 mm 3 mps 744 mmHg 75%
    07:00 +8°C° 0.6 mm 3 mps 744 mmHg 78%
    08:00 +9°C° 0.2 mm 3 mps 744 mmHg 74%
    09:00 +9°C° 0.2 mm 3 mps 744 mmHg 71%
    10:00 +10°C° 0.2 mm 3 mps 744 mmHg 68%
    11:00 +11°C° 0.1 mm 3 mps 743 mmHg 64%
    12:00 +12°C° 0.1 mm 3 mps 742 mmHg 61%
    13:00 +13°C° 0.1 mm 3 mps 742 mmHg 58%
    14:00 +14°C° 0.1 mm 2 mps 742 mmHg 59%
    15:00 +13°C° 0.1 mm 2 mps 741 mmHg 61%
    16:00 +13°C° 0.1 mm 2 mps 741 mmHg 62%
    17:00 +11°C° 2 mm 4 mps 742 mmHg 71%
    18:00 +8°C° 2 mm 5 mps 742 mmHg 80%
    19:00 +6°C° 2 mm 7 mps 743 mmHg 89%
    20:00 +7°C° 0.4 mm 6 mps 743 mmHg 86%
    21:00 +7°C° 0.4 mm 5 mps 744 mmHg 84%
    22:00 +7°C° 0.4 mm 4 mps 744 mmHg 82%
    23:00 +7°C° 0 mm 4 mps 744 mmHg 81%

    25 January, Friday

    Time Temperature Precipitation Wind Pressure Humidity
    00:00 +7°C° 0 mm 4 mps 745 mmHg 80%
    01:00 +6°C° 0 mm 4 mps 745 mmHg 80%
    02:00 +6°C° 0.1 mm 4 mps 745 mmHg 79%
    03:00 +6°C° 0.1 mm 4 mps 745 mmHg 79%
    04:00 +5°C° 0.1 mm 4 mps 745 mmHg 79%
    05:00 +5°C° 0 mm 4 mps 745 mmHg 79%
    06:00 +5°C° 0 mm 4 mps 746 mmHg 78%
    07:00 +4°C° 0 mm 4 mps 746 mmHg 78%
    08:00 +7°C° 0 mm 3 mps 747 mmHg 72%
    09:00 +8°C° 0 mm 3 mps 747 mmHg 66%
    10:00 +10°C° 0 mm 3 mps 747 mmHg 60%
    11:00 +11°C° 0 mm 3 mps 747 mmHg 55%
    12:00 +13°C° 0 mm 2 mps 747 mmHg 50%
    13:00 +14°C° 0 mm 2 mps 747 mmHg 45%
    14:00 +13°C° 0 mm 2 mps 747 mmHg 47%
    15:00 +13°C° 0 mm 2 mps 747 mmHg 50%
    16:00 +12°C° 0 mm 2 mps 747 mmHg 53%
    17:00 +10°C° 0 mm 2 mps 747 mmHg 57%
    18:00 +9°C° 0 mm 2 mps 748 mmHg 61%
    19:00 +8°C° 0 mm 2 mps 749 mmHg 66%
    20:00 +8°C° 0 mm 2 mps 749 mmHg 66%
    21:00 +8°C° 0 mm 2 mps 749 mmHg 67%
    22:00 +8°C° 0 mm 1 mps 750 mmHg 68%
    23:00 +8°C° 0 mm 1 mps 750 mmHg 68%
    Show more